Tracking 18843 objects as of 20-November-2017
HD Live streaming from Space Station
objects crossing your sky now

IRIDIUM 14

Track IRIDIUM 14 now!
10-day predictions
IRIDIUM 14 is classified as:


NORAD ID: 25777
Int'l Code: 1999-032A
Perigee: 783.5 km
Apogee: 786.1 km
Inclination: 86.4 °
Period: 100.4 minutes
Semi major axis: 7155 km
RCS: 3.7031 m2 (large)
Launch date: June 11, 1999
Source: United States (US)
Launch site: Taiyaun Space Center, China (TSC)
aabbcc
Your satellite tracking list
Your tracking list is empty




NASA's NSSDC Master Catalog

Two Line Element Set (TLE):
1 25777U 99032A   17323.59441792 -.00000017 +00000-0 -13010-4 0  9997
2 25777 086.3963 159.0370 0001804 087.8806 272.2597 14.34220536976871
Source of the keplerian elements: AFSPC